GW3916 Weather Reports


time (UTC)temp
F
wind
direction
speed
knots
gust
knots
rain 1hr
in
rain 24hr
in
rain mn
in
humidity
%
barometer
mb
20260504002824 77 295 2.6 4.3 0.00 0.00 0.00 40 1011.7
20260504002318 77 307 1.7 5.2 0.00 0.00 0.00 40 1011.7
20260504001810 77 279 0.9 4.3 0.00 0.00 0.00 42 1011.8
20260504001307 77 352 2.6 4.3 0.00 0.00 0.00 39 1011.8
20260504000805 77 347 0.9 6.1 0.00 0.00 0.00 40 1011.8
20260504000327 77 281 1.7 6.1 0.00 0.00 0.00 41 1012.0
20260503235825 77 314 1.7 4.3 0.00 0.00 0.00 41 1012.0
20260503235323 77 295 1.7 4.3 0.00 0.00 0.00 41 1012.0
20260503234809 77 338 1.7 4.3 0.00 0.00 0.00 39 1012.1
20260503234348 77 302 1.7 4.3 0.00 0.00 0.00 42 1012.1
20260503233817 77 292 1.7 4.3 0.00 0.00 0.00 42 1012.1
20260503233316 77 327 2.6 4.3 0.00 0.00 0.00 43 1012.1
20260503232833 77 308 2.6 4.3 0.00 0.00 0.00 41 1012.1
20260503232328 77 327 0.9 3.5 0.00 0.00 0.00 43 1012.1
20260503231819 77 305 0.9 3.5 0.00 0.00 0.00 40 1012.4
20260503231315 77 281 0.0 2.6 0.00 0.00 0.00 40 1012.4
20260503230826 77 336 1.7 3.5 0.00 0.00 0.00 41 1012.4
20260503230319 77 304 1.7 3.5 0.00 0.00 0.00 41 1012.6
20260503225827 77 334 0.9 3.5 0.00 0.00 0.00 42 1012.6
20260503225342 77 288 0.0 3.5 0.00 0.00 0.00 45 1012.6
20260503224815 76 335 1.7 2.6 0.00 0.00 0.00 44 1012.7
20260503224307 76 312 0.9 2.6 0.00 0.00 0.00 44 1012.7
20260503223804 76 48 1.7 3.5 0.00 0.00 0.00 44 1012.7
20260503223327 76 301 2.6 3.5 0.00 0.00 0.00 44 1013.0
20260503222819 76 288 0.0 1.7 0.00 0.00 0.00 45 1013.0
20260503222331 75 279 0.9 3.5 0.00 0.00 0.00 45 1013.0
20260503221823 75 312 1.7 3.5 0.00 0.00 0.00 44 1013.2
20260503221333 75 293 1.7 4.3 0.00 0.00 0.00 47 1013.2
20260503220826 75 299 0.9 4.3 0.00 0.00 0.00 47 1013.2
20260503220331 74 328 0.9 4.3 0.00 0.00 0.00 47 1013.3
20260503215824 74 299 1.7 3.5 0.00 0.00 0.00 45 1013.3
20260503215316 74 320 0.9 6.1 0.00 0.00 0.00 47 1013.3
20260503214852 74 307 0.9 6.1 0.00 0.00 0.00 46 1013.6
20260503214327 74 289 0.9 4.3 0.00 0.00 0.00 50 1013.6
20260503213811 74 274 1.7 6.1 0.00 0.00 0.00 49 1013.6
20260503213308 74 305 3.5 6.1 0.00 0.00 0.00 50 1013.6
20260503212851 74 296 2.6 7.8 0.00 0.00 0.00 49 1013.6
20260503212319 74 316 2.6 7.8 0.00 0.00 0.00 50 1013.6
20260503211847 74 299 2.6 6.1 0.00 0.00 0.00 51 1013.6
20260503211306 74 304 2.6 5.2 0.00 0.00 0.00 47 1013.6
20260503210832 75 322 2.6 5.2 0.00 0.00 0.00 50 1013.6
20260503210326 75 319 3.5 5.2 0.00 0.00 0.00 49 1013.7
20260503205823 75 307 3.5 5.2 0.00 0.00 0.00 50 1013.7
20260503205313 75 32 1.7 5.2 0.00 0.00 0.00 48 1013.7
20260503204806 75 299 2.6 6.1 0.00 0.00 0.00 50 1013.7
20260503204329 75 295 2.6 6.1 0.00 0.00 0.00 50 1013.7
20260503203822 75 313 2.6 5.2 0.00 0.00 0.00 51 1013.7
20260503203338 75 325 2.6 5.2 0.00 0.00 0.00 50 1013.7
20260503202819 75 329 2.6 5.2 0.00 0.00 0.00 47 1013.7
20260503202329 75 1 1.7 4.3 0.00 0.00 0.00 49 1013.7
20260503201826 75 273 0.9 2.6 0.00 0.00 0.00 47 1013.8
20260503201324 75 281 0.9 3.5 0.00 0.00 0.00 50 1013.8
20260503200825 74 297 0.9 4.3 0.00 0.00 0.00 51 1013.8
20260503200327 74 299 0.9 5.2 0.00 0.00 0.00 49 1014.1
20260503195825 74 293 1.7 5.2 0.00 0.00 0.00 49 1014.1
20260503195317 74 304 0.9 4.3 0.00 0.00 0.00 50 1014.1
20260503194806 74 340 0.9 4.3 0.00 0.00 0.00 50 1014.3
20260503194331 74 297 1.7 4.3 0.00 0.00 0.00 53 1014.3
20260503193805 74 312 1.7 4.3 0.00 0.00 0.00 51 1014.3
20260503193328 74 42 0.9 4.3 0.00 0.00 0.00 49 1014.4
20260503192806 74 302 0.9 4.3 0.00 0.00 0.00 50 1014.4
20260503192347 73 314 0.9 2.6 0.00 0.00 0.00 49 1014.4
20260503191823 73 336 0.9 3.5 0.00 0.00 0.00 50 1014.5
20260503191329 73 288 0.9 3.5 0.00 0.00 0.00 53 1014.5
20260503190816 72 66 0.9 4.3 0.00 0.00 0.00 50 1014.5
20260503190332 72 301 2.6 4.3 0.00 0.00 0.00 52 1014.7
20260503185804 72 322 0.9 4.3 0.00 0.00 0.00 52 1014.7
20260503185329 72 264 2.6 4.3 0.00 0.00 0.00 52 1014.7
20260503184818 71 343 0.9 3.5 0.00 0.00 0.00 53 1014.8
20260503184319 71 321 1.7 5.2 0.00 0.00 0.00 50 1014.8
20260503183803 71 347 2.6 5.2 0.00 0.00 0.00 51 1014.8
20260503183309 71 344 0.9 6.1 0.00 0.00 0.00 53 1014.9
20260503182826 71 312 2.6 6.1 0.00 0.00 0.00 53 1014.9
20260503182326 71 351 0.9 6.1 0.00 0.00 0.00 52 1014.9
20260503181807 71 286 2.6 5.2 0.00 0.00 0.00 52 1015.1
20260503181321 71 330 2.6 5.2 0.00 0.00 0.00 52 1015.1
20260503180830 71 291 1.7 5.2 0.00 0.00 0.00 54 1015.1
20260503180322 70 297 2.6 5.2 0.00 0.00 0.00 53 1015.2
20260503175825 70 19 2.6 5.2 0.00 0.00 0.00 53 1015.2
20260503175317 70 35 1.7 6.1 0.00 0.00 0.00 55 1015.2
20260503174831 70 322 4.3 7.0 0.00 0.00 0.00 55 1015.2
20260503174326 70 296 3.5 7.0 0.00 0.00 0.00 55 1015.2
20260503173824 70 325 2.6 6.1 0.00 0.00 0.00 54 1015.2
20260503173304 70 268 2.6 6.1 0.00 0.00 0.00 53 1015.2
20260503172809 70 306 2.6 6.1 0.00 0.00 0.00 54 1015.2
20260503172326 69 302 3.5 7.0 0.00 0.00 0.00 56 1015.2
20260503171813 69 322 2.6 7.0 0.00 0.00 0.00 56 1015.3
20260503171326 69 312 1.7 5.2 0.00 0.00 0.00 59 1015.3
20260503170836 68 50 1.7 5.2 0.00 0.00 0.00 57 1015.3
20260503170327 68 326 3.5 5.2 0.00 0.00 0.00 57 1015.3
20260503150818 65 240 0.9 5.2 0.00 0.00 0.00 59 1015.9
20260503150318 65 300 1.7 8.7 0.00 0.00 0.00 60 1015.9
20260503131330 61 269 1.7 4.3 0.00 0.00 0.00 60 1015.4
20260503130845 59 233 2.6 4.3 0.00 0.00 0.00 63 1015.4
20260503130321 57 215 2.6 3.5 0.00 0.00 0.00 68 1015.3
20260503110810 58 190 2.6 3.5 0.00 0.00 0.00 65 1015.4
20260503110306 59 151 0.9 3.5 0.00 0.00 0.00 66 1015.5
20260503090317 59 146 0.9 4.3 0.00 0.00 0.00 64 1015.4
20260503081326 61 150 0.0 3.5 0.00 0.00 0.00 61 1015.3
20260503080819 61 123 1.7 4.3 0.00 0.00 0.00 62 1015.3
20260503080331 60 206 3.5 4.3 0.00 0.00 0.00 64 1015.3
20260503072821 60 193 1.7 2.6 0.00 0.00 0.00 66 1015.3
20260503072329 59 149 0.0 3.5 0.00 0.00 0.00 62 1015.3
20260503071803 59 188 2.6 3.5 0.00 0.00 0.00 66 1015.3
20260503071323 60 189 1.7 3.5 0.00 0.00 0.00 65 1015.3
20260503070803 60 199 2.6 3.5 0.00 0.00 0.00 65 1015.3
20260503070320 60 168 0.9 3.5 0.00 0.00 0.00 67 1015.2
20260503060330 60 181 1.7 4.3 0.00 0.00 0.00 65 1015.3
20260503054817 60 206 2.6 4.3 0.00 0.00 0.00 64 1015.3
20260503054313 59 194 3.5 4.3 0.00 0.00 0.00 66 1015.3
20260503053827 60 168 0.9 4.3 0.00 0.00 0.00 68 1015.3
20260503053343 60 185 2.6 4.3 0.00 0.00 0.00 66 1015.3
20260503052816 60 192 2.6 4.3 0.00 0.00 0.00 64 1015.3
20260503052320 60 183 0.9 2.6 0.00 0.00 0.00 60 1015.3
20260503051828 60 89 0.0 4.3 0.00 0.00 0.00 67 1015.3
20260503051326 60 195 4.3 4.3 0.00 0.00 0.00 65 1015.3
20260503050812 60 193 3.5 4.3 0.00 0.00 0.00 63 1015.3
20260503050329 60 308 0.9 5.2 0.00 0.00 0.00 65 1015.3
20260503045844 59 179 3.5 5.2 0.00 0.00 0.00 68 1015.3
20260503045317 59 191 1.7 4.3 0.00 0.00 0.00 69 1015.3
20260503044826 59 185 3.5 4.3 0.00 0.00 0.00 68 1015.3
20260503044320 60 192 3.5 5.2 0.00 0.00 0.00 68 1015.3
20260503043814 60 192 4.3 5.2 0.00 0.00 0.00 67 1015.3
20260503043308 60 185 1.7 5.2 0.00 0.00 0.00 66 1015.2
20260503042828 61 193 4.3 5.2 0.00 0.00 0.00 64 1015.2
20260503042305 61 192 4.3 5.2 0.00 0.00 0.00 61 1015.2
20260503041829 61 192 4.3 5.2 0.00 0.00 0.00 62 1015.1
20260503041305 61 186 3.5 5.2 0.00 0.00 0.00 61 1015.1
20260503040821 61 191 3.5 4.3 0.00 0.00 0.00 61 1015.1
20260503040306 62 183 2.6 4.3 0.00 0.00 0.00 61 1014.8
20260503035802 61 181 3.5 4.3 0.00 0.00 0.00 63 1014.8
20260503035326 61 193 3.5 4.3 0.00 0.00 0.00 62 1014.8
20260503034819 61 188 3.5 4.3 0.00 0.00 0.00 62 1014.8
20260503034310 61 198 3.5 5.2 0.00 0.00 0.00 61 1014.8
20260503033810 61 168 3.5 4.3 0.00 0.00 0.00 64 1014.8
20260503033330 62 195 3.5 4.3 0.00 0.00 0.00 64 1014.7
20260503032826 62 195 3.5 4.3 0.00 0.00 0.00 64 1014.7
20260503032304 62 193 3.5 4.3 0.00 0.00 0.00 57 1014.7
20260503031822 63 194 3.5 4.3 0.00 0.00 0.00 59 1014.7
20260503031315 63 197 2.6 4.3 0.00 0.00 0.00 56 1014.7
20260503030825 64 206 2.6 4.3 0.00 0.00 0.00 56 1014.7
20260503030323 64 197 1.7 3.5 0.00 0.00 0.00 56 1014.6
20260503025833 65 197 1.7 3.5 0.00 0.00 0.00 59 1014.6
20260503025324 66 198 1.7 3.5 0.00 0.00 0.00 55 1014.6
20260503024824 66 224 1.7 2.6 0.00 0.00 0.00 56 1014.6
20260503024348 67 213 0.9 1.7 0.00 0.00 0.00 54 1014.6
20260503023830 68 203 0.9 1.7 0.00 0.00 0.00 52 1014.6
20260503023316 68 197 0.9 1.7 0.00 0.00 0.00 53 1014.7
20260503022813 68 220 0.0 1.7 0.00 0.00 0.00 54 1014.7
20260503022326 69 270 0.9 1.7 0.00 0.00 0.00 52 1014.7
20260503021815 70 270 0.9 0.9 0.00 0.00 0.00 53 1014.8
20260503021308 71 270 0.9 1.7 0.00 0.00 0.00 50 1014.8
20260503020808 72 270 0.9 1.7 0.00 0.00 0.00 49 1014.8
20260503020329 73 270 0.0 1.7 0.00 0.00 0.00 49 1014.8
20260503015805 74 270 0.0 1.7 0.00 0.00 0.00 48 1014.8
20260503015328 73 270 0.0 1.7 0.00 0.00 0.00 45 1014.8
20260503014820 73 301 0.0 1.7 0.00 0.00 0.00 44 1015.0
20260503014330 73 303 0.9 1.7 0.00 0.00 0.00 42 1015.0
20260503013826 73 274 0.0 3.5 0.00 0.00 0.00 44 1015.0
20260503013321 73 288 1.7 3.5 0.00 0.00 0.00 42 1015.1
20260503012823 73 293 1.7 4.3 0.00 0.00 0.00 44 1015.1
20260503012321 73 333 2.6 4.3 0.00 0.00 0.00 44 1015.1
20260503011801 73 305 0.9 3.5 0.00 0.00 0.00 42 1015.1
20260503011301 73 303 0.9 4.3 0.00 0.00 0.00 48 1015.1
20260503010807 73 341 0.9 4.3 0.00 0.00 0.00 48 1015.1
20260503010352 73 236 1.7 4.3 0.00 0.00 0.00 47 1015.1
20260503005812 73 284 1.7 5.2 0.00 0.00 0.00 46 1015.1
20260503005329 74 309 0.9 5.2 0.00 0.00 0.00 46 1015.1
20260503004825 74 296 0.9 4.3 0.00 0.00 0.00 47 1015.0
20260503004338 74 41 0.9 4.3 0.00 0.00 0.00 45 1015.0
20260503003807 74 300 0.0 4.3 0.00 0.00 0.00 47 1015.0
20260503003345 73 317 0.9 4.3 0.00 0.00 0.00 44 1015.1